Location: Isles
(48.9125°N, 2.8272°E)
Time: 11:37:07
(UTC+00:00)

Cosmos 1633 - Pass Details

Date: 03 February 2023
Orbit: 424 x 432 km, 82.5° (Epoch: 25 March)

Event Time Altitude Azimuth Distance (km) Brightness Sun altitude
Rises 17:41:29 0° 156° (SSE) 2,376 6.0 -9.0°
Reaches altitude 10° 17:43:50 10° 139° (SE) 1,515 4.8 -9.3°
Maximum altitude 17:46:20 20° 89° (E) 1,040 3.6 -9.7°
Drops below altitude 10° 17:48:51 10° 40° (NE) 1,526 4.6 -10.1°
Enters shadow 17:48:53 10° 39° (NE) 1,537 4.6 -10.1°
